Marion-Critt Cnty AP, Marion,, KY

11:43 AM CST on November 15, 2019 (GMT -0600)
Marion-Critt Cnty AP, Marion,

Weather History for K5M9 - October, 2019

Change the Weather History Date:

Monday, October 21, 2019

  Actual Average (WUND) Record (WUND)
Temperature  
Mean Temperature 62 °F -  
Max Temperature 65 °F - - (-1)
Min Temperature 58 °F - - (-1)
Degree Days  
Heating Degree Days 4    
Growing Degree Days 12 (Base 50)    
Moisture  
Dew Point 58 °F    
Average Humidity 86    
Maximum Humidity 100    
Minimum Humidity 72    
Precipitation  
Precipitation 0.00 in - - ()
Sea Level Pressure  
Sea Level Pressure 29.73 in    
Wind  
Wind Speed 9 mph (South)    
Max Wind Speed 16 mph    
Max Gust Speed 29 mph    
Visibility 9 miles    
Events Rain    
Averages and records for this station are not official NWS values.
T = Trace of Precipitation, MM = Missing Value Source: NWS Daily Summary

Daily Weather History Graph

Daily Weather History Graph

Search for Another Location

Airport or City:

Astronomy

Oct. 21, 2019 Rise Set
Actual Time 7:05 AM CDT 6:07 PM CDT
Civil Twilight 6:39 AM CDT 6:34 PM CDT
Nautical Twilight 6:08 AM CDT 7:04 PM CDT
Astronomical Twilight 5:38 AM CDT 7:34 PM CDT
Moon No Moon Rise 2:19 PM CDT (10/21)
Length of Visible Light 11h 54m
Length of Day
11h 01m
Waning Gibbous, 48% of the Moon is Illuminated
Oct 21
Waning Gibbous
Oct 27
New
Nov 4
First Quarter
Nov 12
Full
Nov 19
Last Quarter

Hourly Weather History & Observations

Time (CDT) Temp. Dew Point Humidity Pressure Visibility Wind Dir Wind Speed Gust Speed Precip Events Conditions
12:15 AM 60.8 °F 53.2 °F 76% 29.81 in 10.0 mi SSE 9.2 mph - N/A   Scattered Clouds
12:35 AM 61.2 °F 53.8 °F 77% 29.80 in 10.0 mi SSE 9.2 mph - N/A   Clear
12:55 AM 62.6 °F 54.1 °F 74% 29.80 in 10.0 mi SSE 9.2 mph - N/A   Mostly Cloudy
1:15 AM 63.7 °F 54.5 °F 72% 29.80 in 10.0 mi SSE 8.1 mph 17.3 mph N/A   Overcast
1:35 AM 63.3 °F 54.7 °F 73% 29.80 in 10.0 mi SSE 9.2 mph - N/A   Mostly Cloudy
1:55 AM 61.9 °F 54.7 °F 77% 29.79 in 10.0 mi SSE 6.9 mph - N/A   Scattered Clouds
2:15 AM 61.2 °F 54.9 °F 80% 29.77 in 10.0 mi SSE 10.4 mph - N/A   Scattered Clouds
2:35 AM 61.5 °F 55.4 °F 80% 29.78 in 10.0 mi SSE 6.9 mph - N/A   Clear
2:55 AM 61.7 °F 55.6 °F 80% 29.76 in 10.0 mi SSE 5.8 mph - N/A   Mostly Cloudy
3:15 AM 62.6 °F 55.0 °F 76% 29.74 in 10.0 mi SSE 6.9 mph - N/A   Overcast
3:35 AM 62.8 °F 55.0 °F 76% 29.73 in 10.0 mi SSE 8.1 mph 17.3 mph N/A   Mostly Cloudy
3:55 AM 63.0 °F 55.4 °F 76% 29.71 in 10.0 mi SSE 9.2 mph 17.3 mph N/A   Mostly Cloudy
4:15 AM 62.1 °F 56.7 °F 82% 29.70 in 10.0 mi SSE 9.2 mph 21.9 mph N/A   Scattered Clouds
4:35 AM 60.8 °F 58.6 °F 93% 29.69 in 7.0 mi SSE 10.4 mph 17.3 mph N/A Rain Light Rain
4:55 AM 61.7 °F 58.6 °F 90% 29.68 in 10.0 mi SSE 9.2 mph 21.9 mph N/A   Overcast
5:15 AM 61.9 °F 57.6 °F 86% 29.66 in 10.0 mi SSE 11.5 mph 23.0 mph N/A   Mostly Cloudy
5:35 AM 62.6 °F 57.6 °F 84% 29.65 in 10.0 mi SSE 11.5 mph 21.9 mph N/A   Mostly Cloudy
5:55 AM 63.1 °F 58.1 °F 84% 29.67 in 10.0 mi SSE 13.8 mph 24.2 mph N/A   Overcast
6:15 AM 63.0 °F 59.0 °F 87% 29.66 in 10.0 mi South 11.5 mph 20.7 mph N/A   Overcast
6:35 AM 63.0 °F 61.5 °F 95% 29.68 in 7.0 mi SSW 11.5 mph 20.7 mph N/A Rain Heavy Rain
6:55 AM 63.7 °F 63.5 °F 99% 29.69 in 7.0 mi WSW 9.2 mph 20.7 mph N/A Rain Light Rain
7:15 AM 63.5 °F 63.5 °F 100% 29.70 in 2.0 mi Calm Calm - N/A Rain Heavy Rain
7:35 AM 63.5 °F 63.5 °F 100% 29.70 in 7.0 mi Calm Calm - N/A Rain Rain
7:55 AM 63.5 °F 63.5 °F 100% 29.70 in 1.2 mi Calm Calm - N/A Rain Rain
8:15 AM 63.7 °F 63.7 °F 100% 29.70 in 4.0 mi South 3.5 mph - N/A Rain Light Rain
8:35 AM 63.5 °F 63.5 °F 100% 29.69 in 3.0 mi SSE 3.5 mph - N/A Rain Light Rain
8:55 AM 64.6 °F 64.6 °F 100% 29.68 in 4.0 mi South 5.8 mph - N/A Rain Heavy Rain
9:15 AM 62.2 °F 61.9 °F 99% 29.72 in 5.0 mi West 15.0 mph - N/A Rain Rain
9:35 AM 61.9 °F 61.7 °F 99% 29.71 in 10.0 mi SSW 4.6 mph - N/A   Overcast
9:55 AM 62.6 °F 62.6 °F 100% 29.67 in 10.0 mi SSE 8.1 mph - N/A   Mostly Cloudy
10:15 AM 63.7 °F 63.0 °F 97% 29.65 in 10.0 mi SSE 11.5 mph 20.7 mph N/A   Mostly Cloudy
10:35 AM 64.4 °F 62.8 °F 94% 29.69 in 10.0 mi South 8.1 mph 25.3 mph N/A   Mostly Cloudy
10:55 AM 65.3 °F 63.9 °F 95% 29.70 in 10.0 mi South 8.1 mph 19.6 mph N/A Rain Light Rain
11:15 AM 65.3 °F 62.8 °F 92% 29.69 in 10.0 mi South 10.4 mph 16.1 mph N/A   Light Drizzle
11:35 AM 64.9 °F 62.8 °F 93% 29.68 in 10.0 mi SSE 13.8 mph 24.2 mph N/A   Drizzle
11:55 AM 64.4 °F 62.6 °F 94% 29.67 in 10.0 mi South 10.4 mph 27.6 mph N/A   Light Drizzle
12:15 PM 65.3 °F 61.7 °F 88% 29.71 in 10.0 mi South 11.5 mph 21.9 mph N/A   Overcast
12:35 PM 65.3 °F 60.4 °F 84% 29.68 in 10.0 mi South 12.7 mph 28.8 mph N/A   Overcast
12:55 PM 65.5 °F 59.9 °F 82% 29.70 in 10.0 mi South 12.7 mph 26.5 mph N/A   Overcast
1:15 PM 64.0 °F 59.9 °F 86% 29.64 in 10.0 mi SSE 16.1 mph 27.6 mph N/A Rain Rain
1:35 PM 63.9 °F 58.3 °F 82% 29.68 in 10.0 mi SW 11.5 mph 24.2 mph N/A   Overcast
1:55 PM 64.4 °F 58.1 °F 80% 29.69 in 10.0 mi SSW 9.2 mph 20.7 mph N/A   Overcast
2:15 PM 64.4 °F 57.4 °F 78% 29.69 in 10.0 mi SW 9.2 mph 20.7 mph N/A   Overcast
2:35 PM 64.8 °F 57.6 °F 77% 29.69 in 10.0 mi SSW 8.1 mph - N/A   Mostly Cloudy
2:55 PM 65.3 °F 58.3 °F 78% 29.69 in 10.0 mi SSW 9.2 mph 17.3 mph N/A   Mostly Cloudy
3:15 PM 65.5 °F 57.9 °F 77% 29.70 in 10.0 mi South 8.1 mph 24.2 mph N/A   Overcast
3:35 PM 65.5 °F 57.9 °F 77% 29.70 in 10.0 mi SSW 9.2 mph 19.6 mph N/A   Overcast
3:55 PM 64.8 °F 57.6 °F 77% 29.70 in 10.0 mi SW 10.4 mph 25.3 mph N/A   Overcast
4:15 PM 65.3 °F 58.1 °F 77% 29.71 in 10.0 mi SSW 10.4 mph 21.9 mph N/A   Overcast
4:35 PM 64.8 °F 57.7 °F 78% 29.71 in 10.0 mi SW 8.1 mph 20.7 mph N/A   Overcast
4:55 PM 64.4 °F 57.6 °F 78% 29.70 in 10.0 mi SSW 9.2 mph 19.6 mph N/A   Overcast
5:15 PM 63.9 °F 57.6 °F 80% 29.71 in 10.0 mi SSW 10.4 mph 17.3 mph N/A   Overcast
5:35 PM 63.9 °F 57.4 °F 79% 29.72 in 10.0 mi SSW 8.1 mph 16.1 mph N/A   Mostly Cloudy
5:55 PM 63.5 °F 57.2 °F 80% 29.73 in 10.0 mi SSW 6.9 mph - N/A   Mostly Cloudy
6:15 PM 63.0 °F 56.8 °F 80% 29.74 in 10.0 mi SSW 10.4 mph 20.7 mph N/A   Overcast
6:35 PM 62.2 °F 56.8 °F 82% 29.74 in 10.0 mi SSW 5.8 mph - N/A   Overcast
6:55 PM 61.7 °F 56.8 °F 84% 29.74 in 10.0 mi SSW 5.8 mph - N/A   Scattered Clouds
7:15 PM 61.0 °F 57.2 °F 87% 29.75 in 10.0 mi SSW 5.8 mph - N/A   Clear
7:35 PM 61.2 °F 57.2 °F 87% 29.76 in 10.0 mi South 5.8 mph - N/A   Mostly Cloudy
7:55 PM 60.6 °F 57.2 °F 88% 29.77 in 10.0 mi SSW 6.9 mph - N/A   Mostly Cloudy
8:15 PM 60.8 °F 57.2 °F 88% 29.76 in 10.0 mi SSW 6.9 mph 17.3 mph N/A   Overcast
8:35 PM 60.8 °F 57.2 °F 88% 29.77 in 10.0 mi SSW 5.8 mph 17.3 mph N/A   Mostly Cloudy
8:55 PM 60.8 °F 57.6 °F 89% 29.78 in 10.0 mi SW 8.1 mph - N/A   Mostly Cloudy
9:15 PM 60.1 °F 57.7 °F 92% 29.79 in 10.0 mi SW 6.9 mph - N/A   Mostly Cloudy
9:35 PM 59.9 °F 58.1 °F 94% 29.81 in 10.0 mi SSW 5.8 mph - N/A   Mostly Cloudy
9:55 PM 59.9 °F 58.1 °F 94% 29.81 in 10.0 mi SSW 5.8 mph - N/A   Mostly Cloudy
10:15 PM 60.8 °F 56.5 °F 86% 29.83 in 10.0 mi WSW 12.7 mph 19.6 mph N/A   Mostly Cloudy
10:35 PM 59.9 °F 56.8 °F 90% 29.84 in 10.0 mi SW 9.2 mph - N/A   Scattered Clouds
10:55 PM 59.2 °F 56.8 °F 92% 29.85 in 10.0 mi SW 6.9 mph - N/A   Clear
11:15 PM 58.6 °F 56.5 °F 93% 29.85 in 10.0 mi WSW 5.8 mph - N/A   Clear
11:55 PM 58.1 °F 53.1 °F 83% 29.86 in 10.0 mi WSW 6.9 mph - N/A   Clear